Volver al catálogo

KUIPER-00009

ActivoComunicacionesVLEO
NORAD 63725·PAYLOAD·🇺🇸 United States

Lanzado Apr 28, 2025 desde Cape Canaveral Space Force Station

Loading…

Próximos Pases (próximas 24 horas)

TLE

ActualizadoSource: CelesTrak SupGP

Época: Sep 15, 2026, 03:22 UTC

1 63725C 25088B   26258.14037037  .00002749  00000+0  17614-3 0  2585
2 63725  51.9029 338.6522 0000309  97.7020 144.0870 15.08016497    13

Sigue KUIPER-00009 en tiempo real con AllMySat

Download on the App Store